Starlink 11101

operational
NORAD ID: 59715 Int'l Des: 2024-088 Owner: SPXS Country: US Constellation: starlink
LEOCIRCULAR

About Starlink 11101

Description loading...

Live Position

Loading 3D Globe...

Upcoming Passes

Altitude History

Altitude vs Time

uPlot chart will show altitude changes over time

Two-Line Element Set

1 59715U 24088H 26034.56408234 -.00001490 00000-0 -74473-5 0 9992
2 59715 53.1577 134.4075 0000963 85.1783 274.9345 15.69706472100913
Epoch: Feb 3, 2026 • Age: 21 hours

Current Status

Altitude 377.7 km
Velocity 7.68 km/s
Sub-Earth Point -50.30°S, 132.37°E
Launch Date May 10, 2024
Age 1.7 years
Type internet

Technical Details

Classification Payload
Mass 960.00 kg
Dry Mass 910.00 kg
Total Mass 960.00 kg
Length 0.30 m
Diameter 4.10 m
Span 29.00 m
Shape Box + pan
Manufacturer SPXS
Bus Type Starlink V2MD
Phase Status In Orbit
Owner/State SPXS/US

Large Constellations

Loading constellations...